2024-205E

Last updated on Thu Nov 21 2024 00:02:06 GMT+0000 (Coordinated Universal Time)

1 61898U 24205E 24325.59440115 .00020858 00000+0 11262-2 0 9996 2 61898 97.4735 37.6084 0013540 248.1262 111.8530 15.14673596 1394
UTC large
Height (km)
Speed (km/s)
/
Latitude / Longitude
Inclination (degrees)
Orbital Period (minutes)
Azimuth
Elevation
Range (km)
Doppler Factor

Next 0 passes for location: London (51.5072 / 0.1276)

Sorry there are no passes over London.